Location: Pine Mountain Observatory
(43.7910°N, 120.9377°W)
Time: 12:34:08
(UTC-07:00)

Explorer 11/Cluster Stage 4 - Pass Details

Date: 29 May 2019
Orbit: 467 x 1260 km, 28.8° (Epoch: 17 June)

Event Time Altitude Azimuth Distance (km) Brightness Sun altitude
Rises 02:15:09 0° 231° (SW) 3,909 - -22.4°
Reaches altitude 10° 02:19:04 10° 214° (SW) 2,804 - -22.2°
Maximum altitude 02:23:20 18° 175° (S) 2,119 - -21.9°
Drops below altitude 10° 02:27:08 10° 135° (SE) 2,436 - -21.7°
Exits shadow 02:27:20 - 133° (SE) 2,478 8.9 -21.7°
Sets 02:30:13 0° 116° (ESE) 3,207 9.7 -21.5°
